Location: San Martino di Castrozza
(46.2667°N, 11.8000°E)
Time: 15:06:39
(UTC+00:00)

Cosmos 2100 Rocket - Pass Details

Date: 23 April 2021
Orbit: 955 x 1001 km, 82.9° (Epoch: 13 May)

Event Time Altitude Azimuth Distance (km) Brightness Sun altitude
Rises 03:28:55 0° 347° (NNW) 3,655 7.2 -7.7°
Reaches altitude 10° 03:31:28 10° 343° (NNW) 2,708 6.5 -7.3°
Maximum altitude 03:37:27 53° 268° (W) 1,173 4.2 -6.4°
Drops below altitude 10° 03:43:28 10° 193° (SSW) 2,718 6.0 -5.4°
Sets 03:46:02 0° 189° (S) 3,669 6.7 -5.0°
